TOPSWRTT 000
TTAA00 KICT 270512

Wichita AWIPS Roundup
National Weather Service Wichita KS
1100 PM CST MON JAN 26 2015

....Central Kansas....
  
CITY           SKY/WX    TMP DP  RH WIND       PRES   REMARKS
RUSSELL        CLEAR     39  29  67 SW7       30.06F WCI  34          
SALINA         CLEAR     41  31  67 CALM      30.07R                  
GREAT BEND     CLEAR     39  28  65 W8        30.09S WCI  34          
ELLSWORTH      CLEAR     36  30  80 W3        30.08R                  
MCPHERSON      CLEAR     37  30  75 W6        30.07S WCI  33          
HAYS           CLEAR     37  23  56 NW5       30.09S WCI  34          

....South Central Kansas....
  
CITY           SKY/WX    TMP DP  RH WIND       PRES   REMARKS
HUTCHINSON     CLEAR     40  31  70 W3        30.07S                  
NEWTON         CLEAR     46  28  49 W6        30.09R                  
KINGMAN        CLEAR     43  34  70 SW5       30.08S                  
WICHITA (ICT)  CLEAR     43  32  65 NW6       30.06R WCI  39          
JABARA ARPT    CLEAR     48  34  58 W7        30.06R                  
MCCONNELL AFB  CLEAR     48  34  59 N5        30.06S                  
BENTON         FAIR      44  32  64 NW5       30.06R                  
EL DORADO      FAIR      43  32  65 CALM      30.05R                  
HARPER           N/A     43  33  67 CALM      30.10R                  
WELLINGTON     CLEAR     45  34  65 NW3       30.08R                  
WINFIELD       CLEAR     39  30  70 CALM      30.07S                  
 
....Southeast Kansas....
  
CITY           SKY/WX    TMP DP  RH WIND       PRES   REMARKS
EUREKA         CLEAR     45  34  65 NW8       30.04S                  
CHANUTE        CLEAR     38  33  82 N3        30.03F                  
PARSONS        CLEAR     47  35  63 N7        30.04S                  
COFFEYVILLE    CLEAR     43  34  70 N5        30.03S                  
INDEPENDENCE   CLEAR     46  34  61 N5        30.04R                  
FORT SCOTT     CLEAR     41  36  81 CALM      30.02R                  
PITTSBURG      CLEAR     41  35  77 NW3       30.02S                  

....Western Kansas....
  
CITY           SKY/WX    TMP DP  RH WIND       PRES   REMARKS
GOODLAND       PTCLDY    43  30  60 SW9       30.15F WCI  38          
HILL CITY      CLEAR     42  28  57 W6        30.10S WCI  38          
LIBERAL        CLEAR     43  28  56 W9        30.18F WCI  37          
GARDEN CITY    PTCLDY    41  29  62 W8        30.14S WCI  36          
DODGE CITY     CLEAR     44  28  53 W7        30.13F                  
PRATT          CLEAR     41  32  70 W10       30.11R WCI  35          
MEDICINE LODGE   N/A     42  31  64 N6        30.09R WCI  38          

....Northeast Kansas....
  
CITY           SKY/WX    TMP DP  RH WIND       PRES   REMARKS
CONCORDIA      CLEAR     45  33  63 W7        30.05S                  
TOPEKA         CLEAR     36  28  73 CALM      30.05R                  
MANHATTAN      CLEAR     34  26  72 CALM      30.06R                  
LAWRENCE       CLEAR     32  26  78 NW5       30.04R WCI  27          
OLATHE         CLEAR     44  31  60 NW5       30.01S                  
EMPORIA        CLEAR     46  31  55 W6        30.04R                  

....Oklahoma....
  
CITY           SKY/WX    TMP DP  RH WIND       PRES   REMARKS
GAGE           CLEAR     44  32  62 W9        30.14R WCI  39          
PONCA CITY     CLEAR     42  32  67 NE3       30.06S                  
BARTLESVILLE   CLEAR     35  31  85 CALM      30.05S                  
TULSA          CLEAR     50  36  58 CALM      30.03R                  
OKLAHOMA CITY  CLEAR     54  34  46 NW6       30.08R                  

Note: "fair" indicates few or no clouds below 12,000 feet with no
significant weather and/or obstructions to visibility.

USA.gov is the U.S. government's official web portal to all federal, state and local government web resources and services.